| time (UTC) | temp F | wind direction | speed MPH | gust MPH | rain 1hr in | rain 24hr in | rain mn in | humidity % | barometer mb |
| 20260504004331 | 62 | 61 | 0.0 | 0.0 | 0.00 | 0.00 | 0.00 | 77 | 1017.4 |
| 20260504003827 | 62 | 61 | 0.0 | 0.0 | 0.00 | 0.00 | 0.00 | 76 | 1017.4 |
| 20260504003324 | 63 | 61 | 0.0 | 0.0 | 0.00 | 0.00 | 0.00 | 72 | 1017.3 |
| 20260504002821 | 63 | 61 | 0.0 | 0.0 | 0.00 | 0.00 | 0.00 | 73 | 1017.2 |
| 20260504002318 | 64 | 61 | 0.0 | 0.0 | 0.00 | 0.00 | 0.00 | 72 | 1017.4 |
| 20260504001815 | 64 | 61 | 0.0 | 0.0 | 0.00 | 0.00 | 0.00 | 75 | 1017.5 |
| 20260504001313 | 65 | 61 | 0.0 | 0.0 | 0.00 | 0.00 | 0.00 | 73 | 1017.4 |
| 20260504000809 | 65 | 61 | 0.0 | 0.0 | 0.00 | 0.00 | 0.00 | 73 | 1017.2 |
| 20260504000306 | 66 | 61 | 0.0 | 0.0 | 0.00 | 0.00 | 0.00 | 73 | 1017.4 |
| 20260503235804 | 66 | 47 | 0.0 | 0.0 | 0.00 | 0.00 | 0.00 | 74 | 1017.3 |
| 20260503235301 | 67 | 47 | 0.0 | 0.0 | 0.00 | 0.00 | 0.00 | 69 | 1017.3 |
| 20260503234759 | 68 | 46 | 0.0 | 0.0 | 0.00 | 0.00 | 0.00 | 68 | 1017.3 |
| 20260503234257 | 69 | 46 | 0.0 | 0.0 | 0.00 | 0.00 | 0.00 | 65 | 1017.4 |
| 20260503233754 | 70 | 38 | 0.0 | 0.0 | 0.00 | 0.00 | 0.00 | 53 | 1017.4 |
| 20260503233249 | 71 | 16 | 0.0 | 0.0 | 0.00 | 0.00 | 0.00 | 49 | 1017.4 |
| 20260503232746 | 71 | 14 | 0.0 | 0.0 | 0.00 | 0.00 | 0.00 | 46 | 1017.4 |
| 20260503232244 | 70 | 9 | 0.0 | 0.0 | 0.00 | 0.00 | 0.00 | 49 | 1017.6 |
| 20260503231741 | 71 | 30 | 0.0 | 0.0 | 0.00 | 0.00 | 0.00 | 51 | 1017.5 |
| 20260503231239 | 72 | 20 | 0.0 | 0.0 | 0.00 | 0.00 | 0.00 | 47 | 1017.4 |
| 20260503230734 | 72 | 355 | 3.0 | 3.0 | 0.00 | 0.00 | 0.00 | 44 | 1017.7 |
| 20260503230232 | 73 | 1 | 1.0 | 2.0 | 0.00 | 0.00 | 0.00 | 43 | 1017.6 |
| 20260503225729 | 73 | 12 | 1.0 | 1.0 | 0.00 | 0.00 | 0.00 | 44 | 1017.5 |
| 20260503225229 | 73 | 28 | 0.0 | 0.0 | 0.00 | 0.00 | 0.00 | 44 | 1017.7 |
| 20260503224726 | 73 | 301 | 1.0 | 1.0 | 0.00 | 0.00 | 0.00 | 42 | 1017.5 |
| 20260503224224 | 73 | 296 | 1.0 | 2.0 | 0.00 | 0.00 | 0.00 | 44 | 1017.4 |
| 20260503223721 | 73 | 352 | 2.0 | 2.0 | 0.00 | 0.00 | 0.00 | 44 | 1017.7 |
| 20260503223219 | 74 | 13 | 0.0 | 1.0 | 0.00 | 0.00 | 0.00 | 42 | 1017.5 |
| 20260503222716 | 74 | 334 | 1.0 | 2.0 | 0.00 | 0.00 | 0.00 | 41 | 1017.7 |
| 20260503222214 | 74 | 6 | 1.0 | 1.0 | 0.00 | 0.00 | 0.00 | 43 | 1017.7 |
| 20260503221712 | 73 | 76 | 1.0 | 1.0 | 0.00 | 0.00 | 0.00 | 43 | 1017.6 |
| 20260503221209 | 73 | 33 | 0.0 | 1.0 | 0.00 | 0.00 | 0.00 | 43 | 1017.8 |
| 20260503220705 | 73 | 94 | 1.0 | 1.0 | 0.00 | 0.00 | 0.00 | 42 | 1017.7 |
| 20260503220202 | 73 | 50 | 0.0 | 0.0 | 0.00 | 0.00 | 0.00 | 42 | 1017.8 |
| 20260503215658 | 73 | 79 | 0.0 | 0.0 | 0.00 | 0.00 | 0.00 | 49 | 1018.0 |
| 20260503215155 | 74 | 101 | 0.0 | 1.0 | 0.00 | 0.00 | 0.00 | 43 | 1018.1 |
| 20260503214655 | 73 | 30 | 1.0 | 1.0 | 0.00 | 0.00 | 0.00 | 44 | 1018.1 |
| 20260503214150 | 73 | 84 | 0.0 | 0.0 | 0.00 | 0.00 | 0.00 | 55 | 1018.1 |
| 20260503213649 | 74 | 4 | 1.0 | 2.0 | 0.00 | 0.00 | 0.00 | 42 | 1018.0 |
| 20260503213146 | 74 | 336 | 1.0 | 1.0 | 0.00 | 0.00 | 0.00 | 45 | 1018.1 |
| 20260503212643 | 74 | 89 | 1.0 | 2.0 | 0.00 | 0.00 | 0.00 | 42 | 1018.3 |
| 20260503212140 | 74 | 292 | 2.0 | 2.0 | 0.00 | 0.00 | 0.00 | 42 | 1018.3 |
| 20260503211638 | 74 | 4 | 2.0 | 2.0 | 0.00 | 0.00 | 0.00 | 46 | 1018.4 |
| 20260503211133 | 74 | 266 | 1.0 | 1.0 | 0.00 | 0.00 | 0.00 | 44 | 1018.6 |
| 20260503210629 | 73 | 88 | 0.0 | 0.0 | 0.00 | 0.00 | 0.00 | 43 | 1018.5 |
| 20260503210126 | 73 | 22 | 2.0 | 2.0 | 0.00 | 0.00 | 0.00 | 47 | 1018.8 |
| 20260503205622 | 73 | 91 | 1.0 | 1.0 | 0.00 | 0.00 | 0.00 | 44 | 1018.6 |
| 20260503205119 | 73 | 92 | 1.0 | 1.0 | 0.00 | 0.00 | 0.00 | 46 | 1018.6 |
| 20260503204615 | 73 | 152 | 1.0 | 1.0 | 0.00 | 0.00 | 0.00 | 46 | 1019.0 |
| 20260503204113 | 74 | 12 | 1.0 | 1.0 | 0.00 | 0.00 | 0.00 | 45 | 1019.0 |
| 20260503203610 | 75 | 99 | 1.0 | 1.0 | 0.00 | 0.00 | 0.00 | 43 | 1019.1 |
| 20260503203107 | 75 | 1 | 2.0 | 2.0 | 0.00 | 0.00 | 0.00 | 43 | 1019.0 |
| 20260503202605 | 75 | 189 | 1.0 | 1.0 | 0.00 | 0.00 | 0.00 | 45 | 1019.2 |
| 20260503202102 | 75 | 346 | 2.0 | 3.0 | 0.00 | 0.00 | 0.00 | 42 | 1019.1 |
| 20260503201600 | 75 | 64 | 0.0 | 1.0 | 0.00 | 0.00 | 0.00 | 48 | 1019.2 |
| 20260503201057 | 74 | 44 | 1.0 | 2.0 | 0.00 | 0.00 | 0.00 | 46 | 1019.4 |
| 20260503200553 | 74 | 310 | 1.0 | 1.0 | 0.00 | 0.00 | 0.00 | 46 | 1019.5 |
| 20260503200050 | 75 | 354 | 2.0 | 2.0 | 0.00 | 0.00 | 0.00 | 41 | 1019.5 |
| 20260503195542 | 75 | 91 | 1.0 | 2.0 | 0.00 | 0.00 | 0.00 | 47 | 1019.3 |
| 20260503195038 | 75 | 95 | 0.0 | 1.0 | 0.00 | 0.00 | 0.00 | 44 | 1019.6 |
| 20260503194536 | 74 | 325 | 2.0 | 2.0 | 0.00 | 0.00 | 0.00 | 46 | 1019.8 |
| 20260503194035 | 75 | 30 | 2.0 | 3.0 | 0.00 | 0.00 | 0.00 | 44 | 1019.9 |
| 20260503193532 | 75 | 346 | 2.0 | 2.0 | 0.00 | 0.00 | 0.00 | 43 | 1019.8 |
| 20260503193027 | 74 | 354 | 3.0 | 5.0 | 0.00 | 0.00 | 0.00 | 43 | 1019.9 |
| 20260503192524 | 75 | 314 | 3.0 | 5.0 | 0.00 | 0.00 | 0.00 | 42 | 1020.1 |
| 20260503192020 | 75 | 356 | 2.0 | 3.0 | 0.00 | 0.00 | 0.00 | 41 | 1020.3 |
| 20260503191517 | 74 | 333 | 2.0 | 3.0 | 0.00 | 0.00 | 0.00 | 43 | 1020.3 |
| 20260503191014 | 74 | 11 | 3.0 | 5.0 | 0.00 | 0.00 | 0.00 | 45 | 1020.3 |
| 20260503190510 | 74 | 82 | 0.0 | 0.0 | 0.00 | 0.00 | 0.00 | 51 | 1020.4 |
| 20260503190008 | 74 | 340 | 4.0 | 6.0 | 0.00 | 0.00 | 0.00 | 42 | 1020.5 |
| 20260503185503 | 74 | 353 | 4.0 | 5.0 | 0.00 | 0.00 | 0.00 | 43 | 1020.3 |
| 20260503184958 | 75 | 342 | 4.0 | 6.0 | 0.00 | 0.00 | 0.00 | 44 | 1020.5 |
| 20260503184454 | 73 | 17 | 0.0 | 0.0 | 0.00 | 0.00 | 0.00 | 48 | 1020.8 |
| 20260503183951 | 74 | 307 | 5.0 | 6.0 | 0.00 | 0.00 | 0.00 | 42 | 1020.9 |
| 20260503183448 | 73 | 98 | 2.0 | 3.0 | 0.00 | 0.00 | 0.00 | 43 | 1021.1 |
| 20260503182944 | 72 | 341 | 3.0 | 3.0 | 0.00 | 0.00 | 0.00 | 45 | 1021.0 |
| 20260503182443 | 73 | 325 | 4.0 | 5.0 | 0.00 | 0.00 | 0.00 | 44 | 1021.0 |
| 20260503181941 | 73 | 336 | 5.0 | 5.0 | 0.00 | 0.00 | 0.00 | 42 | 1021.1 |
| 20260503181437 | 73 | 45 | 2.0 | 3.0 | 0.00 | 0.00 | 0.00 | 46 | 1021.2 |
| 20260503180933 | 74 | 96 | 0.0 | 0.0 | 0.00 | 0.00 | 0.00 | 45 | 1021.2 |
| 20260503180432 | 73 | 18 | 6.0 | 7.0 | 0.00 | 0.00 | 0.00 | 42 | 1021.1 |
| 20260503175928 | 73 | 336 | 1.0 | 2.0 | 0.00 | 0.00 | 0.00 | 45 | 1021.1 |
| 20260503175426 | 72 | 83 | 2.0 | 3.0 | 0.00 | 0.00 | 0.00 | 43 | 1021.0 |
| 20260503174922 | 72 | 335 | 3.0 | 5.0 | 0.00 | 0.00 | 0.00 | 44 | 1021.3 |
| 20260503174421 | 72 | 101 | 2.0 | 2.0 | 0.00 | 0.00 | 0.00 | 45 | 1021.5 |
| 20260503173920 | 72 | 319 | 2.0 | 2.0 | 0.00 | 0.00 | 0.00 | 43 | 1021.2 |
| 20260503173417 | 72 | 331 | 3.0 | 5.0 | 0.00 | 0.00 | 0.00 | 44 | 1021.3 |
| 20260503172914 | 72 | 328 | 4.0 | 5.0 | 0.00 | 0.00 | 0.00 | 43 | 1021.4 |
| 20260503172411 | 73 | 340 | 4.0 | 6.0 | 0.00 | 0.00 | 0.00 | 44 | 1021.7 |
| 20260503171907 | 72 | 341 | 2.0 | 3.0 | 0.00 | 0.00 | 0.00 | 45 | 1021.7 |
| 20260503171404 | 74 | 83 | 0.0 | 1.0 | 0.00 | 0.00 | 0.00 | 46 | 1021.9 |
| 20260503170902 | 73 | 56 | 0.0 | 0.0 | 0.00 | 0.00 | 0.00 | 49 | 1021.6 |
| 20260503170358 | 73 | 320 | 5.0 | 8.0 | 0.00 | 0.00 | 0.00 | 44 | 1022.0 |
| 20260503150750 | 70 | 64 | 2.0 | 2.0 | 0.00 | 0.00 | 0.00 | 45 | 1022.8 |
| 20260503150246 | 69 | 32 | 2.0 | 3.0 | 0.00 | 0.00 | 0.00 | 50 | 1022.7 |
| 20260503140211 | 66 | 94 | 1.0 | 1.0 | 0.00 | 0.00 | 0.00 | 63 | 1022.2 |
| 20260503131140 | 60 | 17 | 1.0 | 2.0 | 0.00 | 0.00 | 0.00 | 73 | 1021.8 |
| 20260503130637 | 60 | 70 | 0.0 | 0.0 | 0.00 | 0.00 | 0.00 | 82 | 1021.8 |
| 20260503130135 | 60 | 70 | 0.0 | 0.0 | 0.00 | 0.00 | 0.00 | 81 | 1021.7 |
| 20260503110527 | 45 | 81 | 0.0 | 0.0 | 0.00 | 0.00 | 0.00 | 99 | 1020.4 |
| 20260503090414 | 46 | 70 | 0.0 | 0.0 | 0.00 | 0.00 | 0.00 | 99 | 1019.6 |
| 20260503081341 | 47 | 69 | 0.0 | 0.0 | 0.00 | 0.00 | 0.00 | 97 | 1019.4 |
| 20260503080837 | 47 | 70 | 0.0 | 0.0 | 0.00 | 0.00 | 0.00 | 97 | 1019.1 |
| 20260503080335 | 47 | 62 | 0.0 | 0.0 | 0.00 | 0.00 | 0.00 | 97 | 1019.4 |
| 20260503072811 | 48 | 81 | 0.0 | 0.0 | 0.00 | 0.00 | 0.00 | 98 | 1018.9 |
| 20260503072308 | 49 | 91 | 0.0 | 0.0 | 0.00 | 0.00 | 0.00 | 98 | 1019.0 |
| 20260503071804 | 49 | 62 | 0.0 | 0.0 | 0.00 | 0.00 | 0.00 | 98 | 1019.1 |
| 20260503071302 | 49 | 56 | 0.0 | 0.0 | 0.00 | 0.00 | 0.00 | 98 | 1019.0 |
| 20260503070758 | 49 | 61 | 0.0 | 0.0 | 0.00 | 0.00 | 0.00 | 98 | 1018.8 |
| 20260503070256 | 49 | 61 | 0.0 | 0.0 | 0.00 | 0.00 | 0.00 | 97 | 1018.8 |
| 20260503060221 | 50 | 49 | 0.0 | 0.0 | 0.00 | 0.00 | 0.00 | 95 | 1018.9 |
| 20260503054707 | 50 | 42 | 0.0 | 0.0 | 0.00 | 0.00 | 0.00 | 94 | 1019.1 |
| 20260503054205 | 50 | 61 | 0.0 | 1.0 | 0.00 | 0.00 | 0.00 | 93 | 1019.1 |
| 20260503053703 | 50 | 54 | 0.0 | 0.0 | 0.00 | 0.00 | 0.00 | 93 | 1019.0 |
| 20260503053201 | 51 | 57 | 0.0 | 0.0 | 0.00 | 0.00 | 0.00 | 93 | 1019.3 |
| 20260503052657 | 51 | 57 | 0.0 | 0.0 | 0.00 | 0.00 | 0.00 | 93 | 1019.1 |
| 20260503052154 | 51 | 55 | 0.0 | 0.0 | 0.00 | 0.00 | 0.00 | 93 | 1019.3 |
| 20260503051649 | 51 | 56 | 0.0 | 0.0 | 0.00 | 0.00 | 0.00 | 92 | 1018.9 |
| 20260503051147 | 51 | 55 | 0.0 | 0.0 | 0.00 | 0.00 | 0.00 | 92 | 1019.1 |
| 20260503050643 | 51 | 51 | 0.0 | 0.0 | 0.00 | 0.00 | 0.00 | 92 | 1019.0 |
| 20260503050140 | 51 | 49 | 0.0 | 0.0 | 0.00 | 0.00 | 0.00 | 91 | 1019.2 |
| 20260503045637 | 51 | 50 | 0.0 | 0.0 | 0.00 | 0.37 | 0.37 | 91 | 1019.3 |
| 20260503045134 | 51 | 51 | 0.0 | 0.0 | 0.00 | 0.37 | 0.37 | 91 | 1019.3 |
| 20260503044631 | 51 | 51 | 0.0 | 0.0 | 0.00 | 0.37 | 0.37 | 91 | 1019.2 |
| 20260503044129 | 51 | 51 | 0.0 | 0.0 | 0.00 | 0.37 | 0.37 | 91 | 1019.2 |
| 20260503043625 | 51 | 51 | 0.0 | 0.0 | 0.00 | 0.37 | 0.37 | 91 | 1019.1 |
| 20260503043122 | 51 | 51 | 0.0 | 0.0 | 0.00 | 0.37 | 0.37 | 92 | 1019.3 |
| 20260503042619 | 51 | 51 | 0.0 | 0.0 | 0.00 | 0.37 | 0.37 | 92 | 1019.1 |
| 20260503042114 | 51 | 51 | 0.0 | 0.0 | 0.00 | 0.37 | 0.37 | 92 | 1019.2 |
| 20260503041611 | 51 | 49 | 0.0 | 0.0 | 0.00 | 0.37 | 0.37 | 91 | 1019.2 |
| 20260503041109 | 51 | 48 | 0.0 | 0.0 | 0.00 | 0.37 | 0.37 | 91 | 1019.1 |
| 20260503040606 | 52 | 58 | 0.0 | 0.0 | 0.00 | 0.37 | 0.37 | 91 | 1019.1 |
| 20260503040103 | 51 | 58 | 0.0 | 0.0 | 0.00 | 0.37 | 0.37 | 90 | 1019.0 |
| 20260503035600 | 52 | 58 | 0.0 | 0.0 | 0.00 | 0.37 | 0.37 | 89 | 1019.0 |
| 20260503035058 | 52 | 57 | 0.0 | 0.0 | 0.00 | 0.37 | 0.37 | 89 | 1019.1 |
| 20260503034555 | 52 | 58 | 0.0 | 0.0 | 0.00 | 0.37 | 0.37 | 89 | 1019.0 |
| 20260503034052 | 52 | 57 | 0.0 | 0.0 | 0.00 | 0.37 | 0.37 | 88 | 1019.0 |
| 20260503033549 | 53 | 57 | 0.0 | 0.0 | 0.00 | 0.37 | 0.37 | 89 | 1018.8 |
| 20260503033047 | 53 | 57 | 0.0 | 1.0 | 0.00 | 0.37 | 0.37 | 87 | 1019.0 |
| 20260503032545 | 53 | 58 | 0.0 | 0.0 | 0.00 | 0.37 | 0.37 | 87 | 1018.9 |
| 20260503032043 | 53 | 58 | 0.0 | 0.0 | 0.00 | 0.37 | 0.37 | 87 | 1019.0 |
| 20260503031540 | 53 | 57 | 0.0 | 0.0 | 0.00 | 0.37 | 0.37 | 86 | 1018.8 |
| 20260503031037 | 53 | 58 | 0.0 | 0.0 | 0.00 | 0.37 | 0.37 | 85 | 1018.8 |
| 20260503030533 | 53 | 58 | 0.0 | 0.0 | 0.00 | 0.37 | 0.37 | 86 | 1018.9 |
| 20260503030031 | 53 | 58 | 0.0 | 0.0 | 0.00 | 0.37 | 0.37 | 87 | 1019.0 |
| 20260503025527 | 53 | 58 | 0.0 | 0.0 | 0.00 | 0.37 | 0.37 | 86 | 1018.6 |
| 20260503025025 | 53 | 57 | 0.0 | 0.0 | 0.00 | 0.37 | 0.37 | 86 | 1018.6 |
| 20260503024521 | 53 | 58 | 0.0 | 0.0 | 0.00 | 0.37 | 0.37 | 86 | 1018.6 |
| 20260503024019 | 54 | 57 | 0.0 | 0.0 | 0.00 | 0.37 | 0.37 | 86 | 1018.7 |
| 20260503023515 | 54 | 58 | 0.0 | 0.0 | 0.00 | 0.37 | 0.37 | 86 | 1018.2 |
| 20260503023013 | 54 | 58 | 0.0 | 0.0 | 0.00 | 0.37 | 0.37 | 85 | 1018.3 |
| 20260503022508 | 54 | 58 | 0.0 | 0.0 | 0.00 | 0.37 | 0.37 | 83 | 1018.3 |
| 20260503022003 | 54 | 58 | 0.0 | 0.0 | 0.00 | 0.37 | 0.37 | 83 | 1018.2 |
| 20260503021500 | 54 | 58 | 0.0 | 0.0 | 0.00 | 0.37 | 0.37 | 84 | 1018.2 |
| 20260503020957 | 54 | 58 | 0.0 | 0.0 | 0.00 | 0.37 | 0.37 | 85 | 1018.2 |
| 20260503020455 | 55 | 58 | 0.0 | 0.0 | 0.00 | 0.37 | 0.37 | 86 | 1018.0 |
| 20260503015951 | 55 | 58 | 0.0 | 0.0 | 0.00 | 0.37 | 0.37 | 85 | 1017.8 |
| 20260503015448 | 55 | 58 | 0.0 | 0.0 | 0.00 | 0.37 | 0.37 | 85 | 1018.0 |
| 20260503014944 | 54 | 58 | 0.0 | 0.0 | 0.00 | 0.37 | 0.37 | 83 | 1018.1 |
| 20260503014441 | 55 | 58 | 0.0 | 0.0 | 0.00 | 0.37 | 0.37 | 84 | 1017.8 |
| 20260503013939 | 55 | 57 | 0.0 | 0.0 | 0.00 | 0.37 | 0.37 | 85 | 1017.8 |
| 20260503013436 | 55 | 58 | 0.0 | 0.0 | 0.00 | 0.37 | 0.37 | 85 | 1017.5 |
| 20260503012933 | 55 | 58 | 0.0 | 0.0 | 0.00 | 0.37 | 0.37 | 83 | 1017.5 |
| 20260503012431 | 55 | 58 | 0.0 | 0.0 | 0.00 | 0.37 | 0.37 | 83 | 1017.8 |
| 20260503011927 | 56 | 58 | 0.0 | 0.0 | 0.00 | 0.37 | 0.37 | 85 | 1017.6 |
| 20260503011424 | 56 | 58 | 0.0 | 0.0 | 0.00 | 0.37 | 0.37 | 85 | 1017.5 |
| 20260503010921 | 57 | 58 | 0.0 | 0.0 | 0.00 | 0.37 | 0.37 | 84 | 1017.4 |
| 20260503010418 | 57 | 58 | 0.0 | 0.0 | 0.00 | 0.37 | 0.37 | 82 | 1017.5 |
| 20260503005915 | 57 | 58 | 0.0 | 0.0 | 0.00 | 0.37 | 0.37 | 82 | 1017.4 |
| 20260503005412 | 58 | 58 | 0.0 | 0.0 | 0.00 | 0.37 | 0.37 | 80 | 1017.3 |
| 20260503004908 | 58 | 57 | 0.0 | 0.0 | 0.00 | 0.37 | 0.37 | 79 | 1017.1 |